TimePDT,TemperatureF,Dew PointF,Humidity,Sea Level PressureIn,VisibilityMPH,Wind Direction,Wind SpeedMPH,Gust SpeedMPH,PrecipitationIn,Events,Conditions,WindDirDegrees,DateUTC
12:55 AM,79.0,46.0,31,29.88,10.0,NW,24.2,-,N/A,,Clear,310,2013-07-03 07:55:00
1:55 AM,75.9,48.0,37,29.89,10.0,WNW,16.1,-,N/A,,Clear,300,2013-07-03 08:55:00
2:55 AM,75.9,48.0,37,29.90,10.0,WNW,23.0,28.8,N/A,,Clear,300,2013-07-03 09:55:00
3:55 AM,73.0,48.0,41,29.93,10.0,NW,15.0,20.7,N/A,,Clear,310,2013-07-03 10:55:00
4:55 AM,72.0,46.0,40,29.94,10.0,WNW,20.7,28.8,N/A,,Clear,290,2013-07-03 11:55:00
5:55 AM,71.1,43.0,36,29.97,10.0,WNW,12.7,-,N/A,,Clear,300,2013-07-03 12:55:00
6:55 AM,72.0,43.0,35,29.98,10.0,WNW,16.1,-,N/A,,Clear,290,2013-07-03 13:55:00
7:55 AM,73.9,43.0,33,29.99,10.0,NW,15.0,-,N/A,,Clear,310,2013-07-03 14:55:00
8:55 AM,77.0,43.0,30,29.99,10.0,NW,9.2,-,N/A,,Clear,310,2013-07-03 15:55:00
9:55 AM,80.1,43.0,27,29.97,10.0,NW,11.5,-,N/A,,Clear,320,2013-07-03 16:55:00
10:55 AM,82.9,41.0,23,29.96,10.0,WNW,12.7,-,N/A,,Clear,300,2013-07-03 17:55:00
11:55 AM,87.1,39.9,19,29.94,10.0,NW,8.1,-,N/A,,Clear,310,2013-07-03 18:55:00
12:55 PM,88.0,35.1,15,29.94,10.0,Variable,5.8,-,N/A,,Clear,0,2013-07-03 19:55:00
1:55 PM,90.0,36.0,15,29.91,10.0,WSW,6.9,-,N/A,,Clear,240,2013-07-03 20:55:00
2:55 PM,91.0,36.0,14,29.89,10.0,West,6.9,-,N/A,,Clear,270,2013-07-03 21:55:00
3:55 PM,93.0,37.9,15,29.87,10.0,NW,10.4,-,N/A,,Clear,310,2013-07-03 22:55:00
4:55 PM,93.0,33.1,12,29.85,10.0,NW,12.7,-,N/A,,Clear,310,2013-07-03 23:55:00
5:55 PM,91.9,28.9,11,29.83,10.0,WNW,21.9,-,N/A,,Clear,300,2013-07-04 00:55:00
6:55 PM,89.1,27.0,11,29.84,10.0,WNW,20.7,-,N/A,,Clear,300,2013-07-04 01:55:00
7:55 PM,86.0,28.9,13,29.85,10.0,WNW,17.3,-,N/A,,Clear,290,2013-07-04 02:55:00
8:55 PM,81.0,28.9,15,29.84,10.0,WNW,17.3,25.3,N/A,,Clear,290,2013-07-04 03:55:00
9:55 PM,78.1,34.0,20,29.87,10.0,WNW,18.4,-,N/A,,Clear,300,2013-07-04 04:55:00
10:55 PM,75.9,36.0,23,29.88,10.0,WNW,17.3,-,N/A,,Clear,300,2013-07-04 05:55:00
11:55 PM,73.9,34.0,23,29.88,10.0,WNW,17.3,-,N/A,,Clear,290,2013-07-04 06:55:00